Jackson, MI

12:17 PM EDT on October 21, 2019 (GMT -0400)
Jackson County-Reynolds

Weather History for KJXN - May, 2019

Change the Weather History Date:

Friday, May 17, 2019

  Actual Average Record
Temperature  
Mean Temperature 61 °F 58 °F  
Max Temperature 67 °F 70 °F 91 °F (1962)
Min Temperature 55 °F 47 °F 32 °F (1973)
Degree Days  
Heating Degree Days 4 8  
Month to date heating degree days 189 171  
Since 1 July heating degree days 6586 6517  
Cooling Degree Days 0 1  
Month to date cooling degree days 0 10  
Year to date cooling degree days 0 16  
Growing Degree Days 12 (Base 50)    
Moisture  
Dew Point 58 °F    
Average Humidity 84    
Maximum Humidity 100    
Minimum Humidity 68    
Precipitation  
Precipitation 0.03 in 0.11 in 1.24 in (1990)
Month to date precipitation 1.20 1.75  
Year to date precipitation 9.44 9.04  
Sea Level Pressure  
Sea Level Pressure 29.83 in    
Wind  
Wind Speed 6 mph (North)    
Max Wind Speed 12 mph    
Max Gust Speed 18 mph    
Visibility 8 miles    
Events Rain    
T = Trace of Precipitation, MM = Missing Value Source: NWS Daily Summary

Daily Weather History Graph

Daily Weather History Graph

Search for Another Location

Airport or City:

Astronomy

May. 17, 2019 Rise Set
Actual Time 6:14 AM EDT 8:54 PM EDT
Civil Twilight 5:42 AM EDT 9:26 PM EDT
Nautical Twilight 5:02 AM EDT 10:07 PM EDT
Astronomical Twilight 4:16 AM EDT 10:53 PM EDT
Moon 7:38 PM EDT (5/17) 5:49 AM EDT (5/17)
Length of Visible Light 15h 43m
Length of Day
14h 39m
Waxing Gibbous, 98% of the Moon is Illuminated
May 17
Waxing Gibbous
May 18
Full
May 26
Last Quarter
Jun 3
New
Jun 10
First Quarter

Hourly Weather History & Observations

Time (EDT) Temp. Dew Point Humidity Pressure Visibility Wind Dir Wind Speed Gust Speed Precip Events Conditions
12:56 AM 64.0 °F 61.0 °F 90% 29.70 in 10.0 mi SSW 8.1 mph - N/A   Overcast
1:56 AM 63.0 °F 61.0 °F 93% 29.71 in 10.0 mi SSW 8.1 mph - N/A   Partly Cloudy
2:56 AM 61.0 °F 60.1 °F 97% 29.71 in 9.0 mi SW 4.6 mph - N/A   Scattered Clouds
3:56 AM 61.0 °F 60.1 °F 97% 29.72 in 8.0 mi SW 3.5 mph - N/A   Partly Cloudy
4:56 AM 63.0 °F 61.0 °F 93% 29.74 in 9.0 mi NW 5.8 mph - N/A   Mostly Cloudy
5:03 AM 63.0 °F 61.0 °F 93% 29.75 in 9.0 mi NW 4.6 mph - N/A   Overcast
5:56 AM 63.0 °F 61.0 °F 93% 29.76 in 7.0 mi West 3.5 mph - N/A   Overcast
6:21 AM 63.0 °F 61.0 °F 93% 29.78 in 6.0 mi Calm Calm - N/A   Overcast
6:56 AM 63.0 °F 61.0 °F 93% 29.76 in 5.0 mi North 3.5 mph - N/A   Overcast
7:39 AM 62.1 °F 59.0 °F 90% 29.78 in 6.0 mi North 6.9 mph - N/A   Scattered Clouds
7:56 AM 62.1 °F 57.0 °F 84% 29.77 in 9.0 mi North 9.2 mph - N/A   Mostly Cloudy
8:18 AM 62.1 °F 55.9 °F 80% 29.79 in 10.0 mi North 8.1 mph - N/A   Scattered Clouds
8:56 AM 63.0 °F 55.0 °F 75% 29.79 in 10.0 mi NNE 8.1 mph - N/A   Clear
9:15 AM 63.0 °F 55.0 °F 75% 29.80 in 10.0 mi North 8.1 mph - N/A   Mostly Cloudy
9:56 AM 63.0 °F 54.0 °F 72% 29.82 in 10.0 mi North 8.1 mph - N/A   Overcast
10:56 AM 64.9 °F 55.9 °F 73% 29.83 in 10.0 mi Variable 4.6 mph - N/A   Mostly Cloudy
11:09 AM 64.9 °F 55.9 °F 73% 29.83 in 10.0 mi NE 6.9 mph - N/A   Scattered Clouds
11:56 AM 66.0 °F 55.9 °F 70% 29.82 in 10.0 mi ENE 6.9 mph - N/A   Mostly Cloudy
12:56 PM 66.0 °F 55.9 °F 70% 29.87 in 10.0 mi Calm Calm - N/A   Overcast
1:56 PM 66.0 °F 55.9 °F 70% 29.87 in 10.0 mi NW 4.6 mph - N/A   Overcast
2:56 PM 66.0 °F 55.0 °F 68% 29.88 in 10.0 mi NNW 6.9 mph - N/A   Overcast
3:56 PM 64.9 °F 55.0 °F 70% 29.89 in 10.0 mi NNE 3.5 mph - N/A   Overcast
4:20 PM 64.9 °F 55.0 °F 70% 29.90 in 10.0 mi NW 3.5 mph - N/A   Overcast
4:56 PM 64.9 °F 57.0 °F 75% 29.88 in 10.0 mi Calm Calm - 0.00 in   Overcast
5:48 PM 64.9 °F 57.0 °F 75% 29.86 in 10.0 mi NNE 11.5 mph - 0.00 in   Mostly Cloudy
5:56 PM 64.0 °F 57.0 °F 78% 29.86 in 10.0 mi NE 8.1 mph - 0.00 in   Scattered Clouds
6:56 PM 63.0 °F 55.9 °F 78% 29.88 in 10.0 mi North 3.5 mph - N/A   Overcast
7:36 PM 61.0 °F 59.0 °F 93% 29.90 in 2.5 mi SSW 5.8 mph - 0.03 in Rain Light Rain
7:43 PM 61.0 °F 59.0 °F 93% 29.90 in 7.0 mi Calm Calm - 0.03 in   Overcast
7:56 PM 61.0 °F 59.0 °F 93% 29.89 in 7.0 mi East 4.6 mph - 0.03 in   Overcast
8:56 PM 61.0 °F 59.0 °F 93% 29.91 in 8.0 mi Calm Calm - N/A   Overcast
9:56 PM 60.1 °F 59.0 °F 96% 29.93 in 6.0 mi East 6.9 mph - N/A   Overcast
10:56 PM 57.9 °F 55.0 °F 90% 29.96 in 5.0 mi SE 8.1 mph - N/A   Overcast
11:56 PM 55.9 °F 52.0 °F 87% 29.95 in 7.0 mi ESE 11.5 mph 17.3 mph N/A   Overcast